Location: Anciles
(42.5833°N, 0.5167°E)
Time: 19:45:30
(UTC+00:00)

ISS - Visible Passes

Search period start: 17 February 2020 00:00
Search period end: 27 February 2020 00:00
Orbit: 416 x 422 km, 51.6° (Epoch: 17 February)

Date Brightness Start Highest point End Pass type
(mag) Time Alt. Az. Time Alt. Az. Time Alt. Az.
20 Feb -0.7 05:40:55 10° SSE 05:42:41 14° SE 05:44:27 10° E visible
22 Feb -2.3 05:40:44 10° SSW 05:43:52 37° SE 05:47:01 10° ENE visible
23 Feb -1.5 04:54:48 16° S 04:56:20 22° SE 04:59:03 10° E visible
24 Feb -0.7 04:09:36 13° ESE 04:09:36 13° ESE 04:10:36 10° E visible
24 Feb -3.8 05:42:34 15° WSW 05:45:14 79° NNW 05:48:37 10° NE visible
25 Feb -3.5 04:57:11 57° S 04:57:34 63° SE 05:00:56 10° ENE visible
26 Feb -1.2 04:11:40 21° E 04:11:40 21° E 04:13:06 10° ENE visible
26 Feb -2.9 05:44:37 17° W 05:46:46 35° NNW 05:49:55 10° NE visible
